DECAYED

POLARIS DAWN DEB, 61073 (Decayed)

Orbit data source: Space-Track

POLARIS DAWN DEB, 61073 was space debris in LEO originally from a launch on Tue, 10 Sep 2024 UTC launched from the Air Force Eastern Test Range (AFETR). Debris objects in space refer to the collection of defunct objects orbiting the Earth. Examples of debris include non-operational satellites, rocket bodies, and fragments generated from explosions, collisions, or faulty payload assembly.

Not visible in the next 10 days
POLARIS DAWN DEB details
Identifier
61073, 2024-161B
Orbit
Decayed
Last TLE update3 months ago
Origin
Flag of USSpaceX (US)
ManufacturerSpaceX
MissionDecayed spacecraft
Bus & MotorDRAGON SM, Unknown motor
MassWet unknown, ~2,300 kg dry
Launch date (UTC)
2024-09-10 (3 months ago)
Launch vehicleUnknown
Launch site
Air Force Eastern Test Range (AFETR)
Object type
Payload
Rocket body
Debris
Shape & HBRUnknown
Radar Cross SectionLarge (>1 m²)

Expand to show TLE details & history

TLE from 3 months ago
0 POLARIS DAWN DEB
1 61073U 24161B   24273.53565471  .12108337  11959-4  86807-3 0  9991
2 61073  51.6411 286.9673 0038217 121.3262  11.7754 16.35852185  2298
Epoch: 2024-09-29T12:51Z
Definitive object data (Epoch: 2024-09-29T12:51:20.566Z)
Latitude34.98988°
Longitude-128.06386°
Altitude154.739 km
Speed7.833 km/s
True Right ascension04h 54m 11s
True Declination34° 48' 49"
Sunlit
Object was in full shadow at TLE epoch
Visualization observer readout
Observer readout values are unavailable because the object's trajectory could not be propagated. This is usually caused when the trajectory data is faulty or the object's orbit has decayed.
Visualization observer readout
Observer readout values are unavailable because the object's trajectory could not be propagated. This is usually caused when the trajectory data is faulty or the object's orbit has decayed.
Orbital elements
Apogee altitude202.439 km
Perigee altitude152.332 km
Semi-major axis6,555.523 km
Eccentricity0.0038217
Inclination51.6411°
RAAN286.9673°
Arg. of periapsis121.3262°
True anomaly11.86519°
Mean anomaly11.7754°
Eccentric anomaly11.82025°
Mean motion4.08914 °/min
BSTAR0.00086807
Orbital period88.04 mins
Loading maneuver chart data...
Loading historical data...
Loading historical data...
Loading historical data...
Loading historical data...
Loading historical data...
Loading historical data...
Loading historical data...
Other satellites on launch #161 in the year 2024 (2024-09-10 UTC)

POLARIS DAWN DEB Visibility forecast

Observer location: undefined°, undefined

This satellite is decayed
Span
Click to sort rows by Start time (UTC) header in descending order
Start Az.
Max El. time (UTC)
Max El. Az.
Max El.
End time (UTC)
End Az.
|